Home   Weather   Wroclaw   Past weeks

Flag for Poland Past Weather in Wroclaw, Poland — Yesterday and Last 2 Weeks

Now
46 °F

Passing clouds.


Feels Like: 39 °F
Forecast: 43 / 52 °F
Wind: 20 mph from West

Location: Wroclaw Ii

Current Time: Dec 9, 2016 at 4:44:52 pm

Latest Report: Dec 9, 2016 at 4:00 pm


Visibility: N/A

Pressure: 30.21 "Hg

Humidity: 87%

Dew Point: 43 °F

Location of WroclawLocation

Past Weather in Wroclaw — Graph

°F

Wroclaw Temperature Yesterday

Maximum temperature yesterday: 52 °F (at 1:30 pm)
Minimum temperature yesterday: 37 °F (at 12:00 am)
Average temperature yesterday: 44 °F

High & Low Weather Summary for the Past Weeks

 TemperatureHumidityPressure
High52 °F (Dec 8, 1:30 pm)100% (Nov 24, 3:00 pm)30.63 "Hg (Nov 24, 3:00 pm)
Low21 °F (Dec 4, 6:00 am)38% (Nov 30, 10:30 am)29.59 "Hg (Dec 2, 1:00 am)
Average34 °F85%30.22 "Hg
* Reported Nov 24 3:00 pm — Dec 9 3:30 pm, Wroclaw, Weather by CustomWeather, © 2016

Note: Actual official high and low records may vary slightly from our data, if they occured in-between our weather recording intervals... More about our weather records

Advertising

Wroclaw Weather History for the Previous 24 Hours

Scroll right to see more
 ConditionsComfort  
Time TempWeatherWind HumidityBarometerVisibility
3:30 pm
Fri, Dec 9
46 °FLow clouds.21 mph87%30.21 "HgN/A
3:00 pm46 °FLight rain. More clouds than sun.18 mph87%30.21 "Hg5 mi
2:30 pm46 °FDrizzle. Low clouds.21 mph87%30.21 "HgN/A
2:00 pm46 °FPartly sunny.21 mph87%30.21 "HgN/A
1:30 pm46 °FPartly sunny.23 mph87%30.21 "HgN/A
1:00 pm48 °FPartly sunny.18 mph82%30.21 "HgN/A
12:30 pm48 °FPartly sunny.22 mph82%30.21 "HgN/A
12:00 pm48 °FPartly sunny.22 mph76%30.21 "HgN/A
11:30 am48 °FPartly sunny.18 mph76%30.21 "HgN/A
11:00 am48 °FPartly sunny.17 mph76%30.21 "HgN/A
10:30 am46 °FPartly sunny.21 mph76%30.21 "HgN/A
10:00 am46 °FPartly sunny.20 mph76%30.21 "HgN/A
9:30 am46 °FPartly sunny.17 mph76%30.21 "HgN/A
9:00 am45 °FPartly sunny.18 mph76%30.21 "HgN/A
8:30 am45 °FPartly sunny.16 mph71%30.21 "HgN/A
8:00 am45 °FPartly sunny.12 mph66%30.18 "HgN/A
7:30 am43 °FMostly cloudy.12 mph61%30.18 "HgN/A
7:00 am43 °FPassing clouds.12 mph61%30.21 "HgN/A
6:30 am43 °FPartly cloudy.12 mph61%30.18 "HgN/A
5:30 am41 °FClear.14 mph66%30.21 "Hg10 mi
5:00 am39 °FClear.9 mph70%30.21 "Hg10 mi
4:30 am39 °FClear.12 mph70%30.24 "Hg10 mi
4:00 am41 °FClear.13 mph66%30.24 "Hg10 mi
3:30 am39 °FClear.9 mph75%30.24 "Hg10 mi
3:00 am41 °FPassing clouds.5 mph70%30.21 "HgN/A
2:30 am43 °FClear.10 mph71%30.21 "Hg10 mi
2:00 am43 °FPassing clouds.8 mph76%30.21 "HgN/A
1:30 am43 °FLight rain. Passing clouds.13 mph71%30.24 "HgN/A
1:00 am45 °FLight rain. Passing clouds.12 mph61%30.24 "HgN/A
12:30 am45 °FPassing clouds.7 mph61%30.24 "HgN/A
12:00 am45 °FClear.5 mph61%30.24 "Hg10 mi
11:30 pm
Thu, Dec 8
45 °FPassing clouds.5 mph61%30.21 "HgN/A
11:00 pm46 °FClear.10 mph57%30.24 "Hg10 mi
10:30 pm45 °FPassing clouds.3 mph61%30.21 "HgN/A
10:00 pm45 °FPassing clouds.3 mph61%30.24 "HgN/A
9:30 pm45 °FClear.6 mph61%30.24 "Hg10 mi
9:00 pm46 °FClear.8 mph57%30.24 "Hg10 mi
8:30 pm45 °FClear.8 mph66%30.24 "Hg10 mi
8:00 pm45 °FClear.9 mph66%30.24 "Hg10 mi
7:30 pm46 °FClear.12 mph62%30.24 "Hg10 mi
7:00 pm48 °FClear.14 mph58%30.24 "Hg10 mi
6:30 pm46 °FClear.14 mph62%30.24 "Hg10 mi
6:00 pm46 °FClear.14 mph62%30.24 "Hg10 mi
5:30 pm46 °FClear.14 mph62%30.24 "Hg10 mi
5:00 pm45 °FClear.10 mph66%30.24 "Hg10 mi
4:30 pm45 °FClear.9 mph66%30.27 "Hg10 mi
4:00 pm45 °FClear.8 mph71%30.27 "Hg10 mi
Weather by CustomWeather, © 2016

See weather overviewHow to use our weather pages